This demonstration page uses our WeatherBlox Daily Observations layout. Learn more.

Left ArrowRight Arrow

Hourly Observations for May 16, 2022

Temp ( °F °C ) Dew Point ( °F °C ) Humidity (%) Winds ( mph kmh ) Pressure ( in mb ) Visibility ( mi km ) Precip ( " mm )
12:56 am 00:56 Clear 58 14.4 47 8.3 67 67 WNW 5 7 30.04 1017 7 11 0.00 0.00
1:56 am 01:56 Clear 57 14 46 7.7 66 66 NW 6 9 30.05 1018 7 11 0.00 0.00
2:56 am 02:56 Clear 56 13.4 46 7.8 69 69 Calm 30.04 1017 7 11 0.00 0.00
3:56 am 03:56 Clear 56 13.1 46 7.7 70 70 Calm 30.06 1018 7 11 0.00 0.00
4:56 am 04:56 Clear 54 12.4 46 7.5 72 72 Calm 30.06 1018 9 14 0.00 0.00
5:56 am 05:56 Clear 53 11.5 45 7.2 75 75 Calm 30.06 1018 8 13 0.00 0.00
6:56 am 06:56 Sunny 53 11.4 47 8.1 80 80 Calm 30.07 1018 10 16 0.00 0.00
7:56 am 07:56 Sunny 58 14.4 50 9.8 74 74 Calm 30.07 1018 10 16 0.00 0.00
8:56 am 08:56 Sunny 66 19.1 50 10.1 56 56 Calm 30.07 1018 10 16 0.00 0.00
9:56 am 09:56 Sunny 71 21.5 50 10 48 48 Calm 30.07 1018 10 16 0.00 0.00
10:56 am 10:56 Sunny 75 23.7 45 7.3 35 35 Calm 30.06 1018 10 16 0.00 0.00
11:56 am 11:56 Sunny 77 25 42 5.7 29 29 Calm 30.06 1018 10 16 0.00 0.00
12:56 pm 12:56 Mostly Sunny 78 25.8 43 5.9 28 28 W 8 13 30.04 1017 10 16 0.00 0.00
1:56 pm 13:56 Mostly Sunny 80 26.5 44 6.5 28 28 W 7 11 30.00 1016 10 16 0.00 0.00
2:56 pm 14:56 Mostly Sunny 81 27.2 44 6.6 27 27 WSW 7 11 29.99 1016 9 14 0.00 0.00
3:56 pm 15:56 Mostly Sunny 84 29 43 6 23 23 W 7 11 29.89 1012 10 16 0.00 0.00
4:56 pm 16:56 Mostly Sunny 82 28 45 7 26 26 WSW 12 19 29.88 1012 10 16 0.00 0.00
5:56 pm 17:56 Mostly Sunny 82 28 45 7 26 26 WSW 7 11 29.86 1011 8 13 0.00 0.00
6:56 pm 18:56 Mostly Sunny 82 28 45 7 26 26 SW 5 7 29.85 1011 10 16 0.00 0.00
7:56 pm 19:56 Mostly Sunny 81 27 45 7 28 28 SW 3 6 29.86 1011 10 16 0.00 0.00
8:56 pm 20:56 Clear 77 25 48 9 36 36 SSW 6 9 29.88 1012 10 16 0.00 0.00
9:56 pm 21:56 Mostly Clear 75 24 48 9 39 39 S 5 7 29.90 1012 10 16 0.00 0.00
10:56 pm 22:56 Mostly Clear 72 22 48 9 44 44 ESE 3 6 29.91 1013 10 16 0.00 0.00
11:56 pm 23:56 undefined N/A N/A N/A ESE 3 6 N/A 10 16 0.00 0.00

Powered by AerisWeather